Regional Weather Roundup
Issued by NWS Cleveland, OH

Home | Current Version | Previous Version | Text Only | Print | Product List | Glossary On
Versions: 1 2 3 4 5 6 7 8 9 10 11 12 13 14 15 16 17 18 19 20 21 22 23 24 25 26 27 28 29 30 31 32 33 34 35 36 37 38 39 40 41 42 43 44 45 46 47 48 49 50
000
ASUS41 KCLE 211810
RWRCLE
OHIO REGIONAL WEATHER ROUNDUP
NATIONAL WEATHER SERVICE WILMINGTON, OH
100 PM EST SUN DEC 21 2014

NOTE: "FAIR" INDICATES FEW OR NO CLOUDS BELOW 12,000 FEET WITH NO
SIGNIFICANT WEATHER AND/OR OBSTRUCTIONS TO VISIBILITY.

OHZ001>008-015>018-024>027-034-035-043-044-211900-
   NORTHWEST OHIO

CITY           SKY/WX    TMP DP  RH WIND       PRES   REMARKS
DEFIANCE       CLOUDY    34  25  69 S8        30.25F WCI  27
FINDLAY        CLOUDY    34  25  69 S7        30.25F WCI  28
TOLEDO EXPRESS CLOUDY    33  26  75 SW5       30.26F WCI  29
TOLEDO METCALF MOSUNNY   35  24  64 S8        30.27F WCI  29
LIMA           MOSUNNY   37  24  59 SE8       30.23F
$$

OHZ009>014-019>023-028>033-038-089-211900-
   NORTHEAST OHIO

CITY           SKY/WX    TMP DP  RH WIND       PRES   REMARKS
CLE-HOPKINS    CLOUDY    31  22  69 SE3       30.31F
CLE-LAKEFRONT  CLOUDY    32  21  64 SE6       30.29F WCI  26
CUY CO. ARPT   CLOUDY    34  23  64 S7        30.29F WCI  28
LORAIN-ELYRIA  CLOUDY    31  22  69 S8        30.28F WCI  23
ASHTABULA      CLOUDY    32  23  69 SE7       30.29F WCI  26
AKRON-CANTON   CLOUDY    30  21  69 S5        30.26F WCI  25
WOOSTER        CLOUDY    29  21  72 S3        30.27F
MANSFIELD      SUNNY     33  21  61 S6        30.24F WCI  28
YOUNGSTOWN     CLOUDY    30  20  66 S6        30.27F WCI  24
$$

OHZ042-051>053-060>062-070>072-077>081-211900-
  SOUTHWEST OHIO

CITY           SKY/WX    TMP DP  RH WIND       PRES   REMARKS
CINC-COVINGTON PTSUNNY   36  25  64 E7        30.24F
CINC-LUNKEN    SUNNY     36  26  67 CALM      30.27F
HAMILTON       SUNNY     37  25  61 VRB6      30.26F
DAYTON         PTSUNNY   36  24  62 SE9       30.24F
WRIGHT-PAT AFB PTSUNNY   36  24  63 SE9       30.24F
DAYTON GENERAL SUNNY     35  25  66 SE8       30.23F WCI  29
WILMINGTON     MOSUNNY   34  25  69 SE9       30.23F WCI  27
$$

OHZ036-037-039>041-045>050-054>059-063>069-073>076-082>088-211900-
  CENTRAL AND SOUTHEAST OHIO

CITY           SKY/WX    TMP DP  RH WIND       PRES   REMARKS
COLUMBUS       PTSUNNY   35  22  58 E6        30.26F
OSU AIRPORT    SUNNY     36  21  54 E5        30.25F
BOLTON FIELD   SUNNY     36  25  64 E5        30.26F
RICKENBACK AFB MOSUNNY   35  23  62 E3        30.26F
NEWARK         SUNNY     35  22  58 MISG      30.26F
MARION         MOSUNNY   34  23  64 CALM      30.26F HAZE
LANCASTER      MOSUNNY   51  24  34 SE6       30.27F
ZANESVILLE     CLOUDY    32  22  66 CALM      30.27F
NEW PHILLY     CLOUDY    32  22  66 CALM      30.28F
$$


USA.gov is the U.S. government's official web portal to all federal, state and local government web resources and services.